Temperature
12 13 13 13 12 12 12 12 12 12 12 12 12 12 12 12 12 12 12 12 12 12 12 12 12 12 12 12 12 12 12 12 12 12 12 12 11 11 11 11 11 11 11
12 12 12 12 12 12 12 12 12 12 12 12 12 12 12 12 12 12 12 12 12 11 11 11 11 11 12 12 12 12 12 12 12 12 12 11 11 11 11 11 11 11 10
12 12 12 12 12 12 12 12 12 11 11 11 11 11 11 11 11 11 11 11 11 11 11 11 11 11 11 11 11 11 12 12 11 11 11 11 11 11 11 10 10 10 10
12 12 12 12 12 12 12 11 11 11 11 11 11 11 11 11 11 11 11 11 11 11 11 11 11 11 11 11 11 11 11 11 11 11 11 11 10 10 10 10 10 10 10
12 12 12 11 11 11 11 11 11 11 11 11 11 11 11 11 11 11 11 11 11 11 11 11 11 11 11 11 11 11 11 11 11 11 10 10 10 10 10 10 10 10 10
11 11 11 11 11 11 11 11 11 10 11 10 10 10 10 10 10 10 10 10 10 10 10 10 10 10 10 10 10 10 10 10 10 10 10 10 10 10 10 10 9 9 9
11 11 11 11 11 11 11 11 11 10 10 10 10 10 10 10 10 10 10 10 10 10 10 10 10 10 10 10 10 10 10 10 10 10 10 9 9 9 9 9 9 9 9
11 11 11 11 11 10 10 10 10 10 10 10 10 9 9 9 9 9 9 9 10 10 10 10 10 10 10 10 10 10 10 10 9 9 9 9 9 9 9 9 9 9 8
11 11 11 11 11 10 10 10 10 10 10 9 9 9 9 9 9 9 9 9 9 9 9 9 9 9 9 9 10 9 9 9 9 9 9 9 9 9 9 9 9 8 8
10 10 10 10 10 10 10 10 10 10 10 9 9 9 9 9 9 8 8 9 9 9 9 9 9 9 9 9 9 9 9 9 9 9 9 9 9 8 8 8 8 8 8
10 10 10 10 10 10 10 10 9 9 9 9 9 9 9 9 9 8 8 8 9 9 9 8 9 9 9 9 9 9 9 9 9 9 8 8 8 8 8 8 8 8 8
9 9 9 10 10 10 9 9 9 9 9 9 9 9 9 9 8 8 8 8 8 8 8 8 8 8 8 9 9 9 9 8 8 8 8 8 8 8 8 8 8 7 7
9 9 9 9 9 9 9 9 9 9 9 9 8 8 8 8 8 8 8 8 7 8 8 8 8 8 8 8 8 8 8 8 8 8 8 8 8 8 7 7 7 7 7
9 9 9 9 9 9 9 9 9 9 8 8 8 8 8 8 8 8 8 7 7 7 7 7 7 7 7 7 8 8 7 7 7 7 7 7 7 7 7 7 7 7 7
8 8 8 8 8 8 8 8 8 8 8 8 8 8 7 7 7 7 7 7 7 7 6 7 7 7 7 7 7 7 7 7 7 7 7 7 7 7 7 7 7 6 6
8 8 8 8 8 8 8 8 8 8 7 7 7 7 7 7 7 7 7 7 7 7 6 7 7 7 7 7 7 7 7 6 6 6 6 6 6 6 6 6 6 6 6
7 7 8 8 8 8 8 7 7 7 7 7 7 7 7 7 7 7 7 7 7 6 6 6 6 6 6 6 6 6 6 6 6 6 6 6 6 6 6 6 6 5 5
7 7 7 7 7 7 7 7 7 7 7 7 7 7 7 7 7 6 6 6 6 6 6 6 6 6 6 6 6 6 6 5 5 6 6 6 5 5 5 5 5 5 5
6 6 7 7 7 7 7 7 7 7 7 7 7 7 6 6 6 6 6 6 6 6 6 6 6 5 5 5 5 5 5 5 5 5 5 5 5 5 5 5 5 5 4
6 6 6 6 6 6 6 6 6 6 6 6 6 6 6 6 6 6 6 6 6 5 5 5 5 5 5 5 5 5 5 5 5 5 5 5 4 4 4 4 4 4 4
5 5 5 6 6 6 6 6 5 6 6 6 6 6 6 6 6 6 5 5 5 5 5 5 4 4 4 4 4 4 4 4 4 4 4 4 4 4 4 4 4 3 3
4 5 5 5 5 5 5 5 5 5 5 5 5 5 5 5 5 5 5 5 5 5 5 5 4 4 4 4 4 4 4 4 3 4 3 4 3 3 3 3 3 3 3
4 4 4 4 4 5 5 5 4 4 4 5 5 5 5 5 4 4 4 4 4 4 4 4 4 4 4 4 4 3 3 3 3 3 3 3 3 3 3 3 2 2 2
3 3 4 4 4 4 4 4 4 4 4 4 4 4 4 4 4 4 4 4 4 4 3 3 3 3 3 3 3 3 3 2 2 2 2 2 2 2 2 2 2 1 1
2 2 3 3 3 3 3 3 3 3 3 3 3 3 3 4 4 3 3 3 3 3 3 3 3 3 3 3 3 2 2 2 2 2 1 1 1 1 2 2 1 1 1
1 2 2 2 2 2 2 3 3 2 2 3 3 3 3 3 3 3 3 3 3 3 3 2 2 2 2 2 2 2 1 1 1 1 1 0 1 0 0 1 1 0 0
Wind_Speed
5 5 5 6 7 7 6 5 5 5 6 7 7 7 8 9 10 11 10 12 11 10 10 10 9 9 9 9 9 8 8 8 8 9 9 8 8 8 8 8 8 8 8
6 5 5 5 5 7 6 5 5 5 5 6 6 7 8 8 10 11 10 10 10 9 9 9 8 8 7 7 8 7 7 7 7 7 7 7 7 7 7 7 7 6 7
7 6 5 4 5 7 7 6 6 6 5 5 4 5 7 7 8 9 9 9 8 8 8 8 8 7 7 6 7 7 7 6 6 6 6 6 7 7 7 6 6 6 5
8 6 5 4 6 7 6 4 4 4 4 4 3 3 5 6 7 8 8 9 8 7 7 7 7 7 6 6 6 6 6 6 5 5 5 5 6 6 6 6 6 6 5
8 7 5 6 7 5 5 4 4 4 4 4 4 3 3 4 4 6 7 8 7 7 7 6 6 6 5 5 4 4 4 5 5 4 4 5 4 5 5 5 5 5 5
8 7 5 6 7 4 4 4 5 4 4 4 4 4 3 3 4 4 5 6 6 6 6 5 5 4 4 3 3 3 3 3 3 4 4 4 4 4 4 4 5 5 5
8 7 6 6 6 4 5 5 5 6 4 4 3 2 2 2 2 2 4 4 4 5 5 5 4 4 3 3 2 2 2 2 2 2 2 2 2 3 4 4 4 5 5
8 7 7 6 6 4 5 6 5 4 3 3 3 3 1 1 0 1 2 2 3 4 4 4 4 3 3 3 2 2 1 1 1 1 1 1 1 1 2 2 3 3 4
8 8 7 6 6 5 5 6 6 6 5 3 2 3 3 2 1 0 2 2 2 2 3 4 4 3 2 3 2 1 1 0 1 1 0 1 0 0 1 1 2 2 3
8 8 8 7 6 5 4 5 5 4 5 4 2 1 2 3 2 1 1 1 2 2 2 3 3 3 3 2 2 1 2 1 2 2 2 2 2 1 1 1 2 2 2
7 8 8 7 6 5 5 5 5 5 4 4 3 2 1 1 2 2 2 1 1 2 2 3 3 3 3 3 2 2 2 2 2 2 2 1 2 2 2 2 2 2 3
4 6 7 7 6 5 5 5 6 6 4 4 3 3 3 2 2 2 2 2 2 2 2 2 3 4 4 3 3 3 2 2 3 3 3 2 2 3 4 4 4 4 4
4 6 5 5 5 5 6 5 5 5 5 5 4 3 3 2 2 2 2 2 1 1 1 1 3 4 4 4 4 3 3 2 2 3 3 3 3 4 4 5 5 4 4
5 6 6 6 5 6 5 5 5 4 4 4 4 4 3 2 2 2 3 2 1 1 1 2 2 4 4 4 4 4 3 3 3 3 4 4 5 5 5 5 5 5 5
4 6 6 6 5 6 5 5 4 4 5 5 4 4 3 3 2 2 3 3 3 3 3 3 2 2 4 4 4 4 4 4 4 4 5 5 6 5 5 5 5 5 5
3 5 6 6 6 5 5 5 4 4 5 4 4 4 3 2 2 2 3 3 2 3 3 2 2 2 3 3 4 4 4 4 4 5 6 6 6 5 5 4 5 5 5
3 5 5 6 6 6 5 5 5 5 6 5 4 5 4 3 3 3 3 3 3 3 3 2 1 1 2 2 2 3 3 4 4 6 6 6 6 6 5 5 5 5 6
2 3 4 5 5 5 5 6 6 6 6 6 6 5 5 4 4 3 3 4 3 3 3 3 2 2 2 3 2 2 2 4 4 5 6 6 6 6 6 6 5 5 6
2 3 4 5 5 5 5 5 6 6 6 6 6 6 5 5 5 4 4 4 3 3 3 3 3 2 1 1 1 1 1 2 4 5 6 6 6 7 6 6 6 6 6
2 3 3 4 4 5 5 5 5 5 5 5 5 5 5 6 6 6 5 5 4 4 3 3 3 2 2 1 1 2 2 1 2 4 5 6 6 7 7 7 7 7 7
1 2 3 3 3 4 4 5 5 5 5 5 4 4 4 5 6 6 5 5 5 4 4 3 3 2 2 2 3 2 2 2 2 2 2 3 4 4 6 7 7 7 7
1 2 2 3 4 3 4 5 5 5 5 5 5 4 4 4 5 6 5 6 6 6 5 4 3 4 4 3 2 2 2 1 3 1 1 3 3 3 5 6 7 8 8
1 1 1 2 3 3 4 5 5 4 5 5 5 4 3 3 4 3 4 4 4 5 5 5 5 5 4 4 4 3 3 2 3 2 1 3 2 3 4 6 7 7 7
1 1 1 1 2 2 4 5 4 3 4 4 4 5 5 4 4 4 3 3 2 2 3 2 4 4 3 3 4 3 3 1 1 1 1 3 2 3 4 6 7 6 6
1 1 1 1 1 2 3 5 4 3 3 3 3 3 4 4 5 5 4 4 2 1 1 2 3 3 3 4 4 2 2 1 2 2 1 1 2 3 3 3 5 5 6
1 1 1 1 1 1 2 3 4 3 3 3 2 3 4 5 6 6 5 5 4 2 2 2 2 2 3 3 3 2 3 2 2 2 2 1 1 2 3 3 3 5 6
Wind_Direction
129 123 125 134 138 140 138 134 123 113 99 96 98 98 94 96 100 102 104 102 99 98 96 94 94 96 94 95 94 89 83 78 74 71 68 68 67 64 65 64 64 64 66
128 132 124 123 126 130 130 125 117 104 94 94 86 88 96 100 101 107 110 107 104 101 97 93 91 88 89 93 92 90 86 82 77 73 66 65 66 63 60 58 59 61 66
137 133 127 124 130 132 128 116 108 102 99 98 92 86 88 95 98 101 107 111 110 108 103 96 90 85 86 94 94 87 86 83 78 74 68 65 66 62 58 56 53 56 58
144 134 131 135 134 131 127 120 119 114 105 100 94 82 81 87 93 97 97 99 101 107 107 101 93 87 83 88 90 86 82 78 76 77 70 65 67 60 54 53 51 48 44
143 136 136 135 137 129 125 130 124 122 118 111 105 89 77 74 79 95 96 100 101 106 112 107 99 91 85 86 88 86 82 78 74 73 70 64 68 62 56 47 43 39 39
143 137 133 138 135 133 134 129 130 118 122 123 110 93 89 88 81 89 102 107 110 113 114 114 111 105 97 94 89 86 88 88 77 73 75 72 67 57 51 45 42 40 34
145 138 137 141 138 145 151 142 130 128 122 118 101 93 66 87 97 99 106 111 113 116 109 108 111 110 104 103 97 86 81 83 80 88 90 85 69 58 54 51 47 41 35
149 151 146 148 145 146 149 148 135 136 141 141 129 128 118 66 352 116 122 130 126 124 123 124 114 104 100 103 97 94 91 63 55 103 121 126 103 75 53 39 34 27 22
151 152 152 146 147 149 159 158 154 147 157 167 146 141 145 186 177 207 173 144 137 128 134 141 135 127 119 114 118 140 138 316 259 288 249 216 233 294 343 353 2 9 10
153 156 155 150 147 152 157 163 157 153 154 165 171 154 144 132 140 166 233 173 150 154 159 152 161 172 166 148 151 173 184 217 245 275 283 274 266 272 289 316 335 340 340
155 159 157 156 153 157 161 164 162 161 164 165 166 168 146 102 117 149 190 202 206 204 182 171 173 179 182 176 179 185 190 224 245 258 277 298 312 324 314 314 316 320 321
157 157 159 158 159 160 167 171 167 172 176 172 170 163 157 160 178 163 176 191 205 215 200 185 175 183 189 188 197 196 189 215 238 251 266 287 308 319 333 322 302 303 306
164 165 159 161 161 163 169 169 167 174 176 176 180 181 180 185 170 163 166 181 186 207 188 203 193 187 191 194 205 199 197 205 225 245 260 279 289 296 305 314 305 304 311
168 164 164 162 163 165 170 173 171 178 175 181 187 186 188 197 181 165 168 163 179 222 212 228 200 191 194 193 200 197 207 212 226 247 260 271 272 278 286 295 302 297 304
158 161 164 167 169 168 173 171 173 182 182 188 192 192 193 199 191 184 170 165 174 207 231 222 206 200 195 197 208 200 207 223 237 257 266 274 271 270 275 286 295 296 296
157 160 165 168 170 172 175 179 180 179 183 192 187 188 199 197 186 184 182 189 192 192 222 215 204 183 183 206 213 207 218 231 246 257 266 273 278 276 275 278 287 291 293
163 162 168 171 173 171 172 180 186 183 191 195 191 193 201 191 187 191 189 192 206 192 219 247 192 157 166 188 214 217 225 232 250 260 260 268 279 280 277 275 280 284 290
173 169 168 172 173 171 172 177 185 188 190 192 192 192 199 194 197 199 197 204 210 203 199 225 219 188 201 196 197 209 242 247 250 262 261 269 275 275 276 278 282 283 288
182 179 175 172 174 175 180 184 184 189 191 193 191 192 195 192 202 204 201 205 206 205 196 205 217 205 197 186 200 252 256 256 265 268 265 268 273 275 276 277 279 278 281
184 186 183 178 177 176 179 182 184 191 192 193 192 193 194 196 201 202 205 204 195 191 186 188 203 199 204 193 177 230 268 256 262 265 262 266 273 275 273 272 273 275 279
197 188 178 174 169 174 180 179 187 193 193 194 194 195 197 200 202 202 205 198 189 189 184 188 199 203 208 196 210 214 244 262 273 243 248 260 263 266 268 269 269 272 276
151 157 174 174 173 184 178 180 187 189 192 195 198 199 199 197 196 199 204 199 192 190 191 195 205 205 214 215 208 209 218 260 275 260 250 271 236 248 262 264 269 273 276
103 122 163 174 172 179 176 180 194 194 190 196 197 193 196 197 187 183 190 185 188 196 197 197 202 212 212 211 200 209 220 236 252 243 266 274 256 262 265 265 271 277 283
133 122 137 169 178 195 183 178 189 196 191 192 192 190 188 186 177 169 163 164 177 199 210 205 202 209 207 194 200 207 206 218 295 272 242 269 280 276 275 272 264 271 287
130 123 136 142 180 217 204 190 189 191 186 190 190 186 183 184 180 169 168 172 172 183 133 168 172 170 174 175 169 152 165 200 268 272 242 253 281 297 287 263 259 274 288
139 128 94 118 168 201 207 189 188 183 183 180 176 181 185 188 183 177 181 180 191 199 160 125 119 119 132 149 170 180 191 208 255 260 238 235 282 329 304 287 273 283 287
Height
1542 1545 1547 1549 1551 1554 1556 1558 1560 1562 1564 1566 1567 1569 1570 1571 1572 1573 1574 1575 1575 1576 1577 1577 1577 1578 1578 1579 1579 1579 1579 1579 1578 1578 1578 1578 1578 1578 1578 1578 1577 1577 1576
1541 1543 1546 1548 1550 1552 1555 1557 1559 1561 1563 1565 1567 1568 1570 1571 1572 1573 1574 1575 1575 1576 1577 1577 1578 1578 1578 1579 1579 1579 1579 1579 1579 1578 1578 1578 1578 1578 1578 1578 1577 1577 1576
1540 1542 1544 1547 1549 1551 1554 1556 1558 1560 1562 1564 1566 1568 1569 1570 1571 1572 1573 1574 1575 1576 1577 1577 1578 1578 1578 1579 1579 1579 1579 1579 1578 1578 1578 1578 1578 1578 1578 1577 1577 1576 1576
1538 1540 1543 1545 1547 1550 1552 1555 1557 1559 1561 1563 1565 1567 1568 1570 1571 1572 1573 1574 1575 1575 1576 1577 1577 1578 1578 1578 1578 1578 1578 1578 1578 1578 1578 1577 1577 1577 1577 1577 1576 1576 1575
1536 1538 1541 1543 1546 1548 1550 1553 1555 1557 1559 1562 1564 1566 1567 1569 1570 1571 1572 1573 1574 1575 1575 1576 1576 1577 1577 1577 1577 1578 1578 1577 1577 1577 1577 1577 1577 1576 1576 1576 1575 1575 1574
1533 1536 1539 1541 1544 1546 1548 1551 1554 1556 1558 1560 1562 1565 1566 1568 1569 1570 1571 1572 1573 1573 1574 1575 1575 1576 1576 1576 1577 1577 1577 1577 1577 1577 1576 1576 1576 1575 1575 1575 1574 1573 1573
1531 1533 1536 1539 1541 1544 1546 1549 1551 1554 1557 1559 1561 1563 1565 1567 1568 1569 1569 1570 1571 1572 1573 1573 1574 1574 1575 1575 1575 1575 1576 1575 1575 1575 1575 1575 1575 1574 1574 1573 1573 1572 1571
1527 1530 1533 1536 1539 1541 1544 1546 1549 1552 1554 1557 1559 1561 1563 1566 1566 1567 1568 1568 1569 1570 1571 1572 1572 1573 1573 1573 1574 1574 1574 1574 1574 1574 1573 1573 1573 1573 1572 1572 1571 1571 1570
1524 1527 1530 1533 1536 1538 1541 1544 1546 1549 1551 1554 1556 1559 1560 1561 1563 1565 1566 1567 1567 1568 1569 1569 1570 1571 1571 1572 1572 1572 1572 1572 1572 1572 1572 1571 1571 1571 1570 1570 1569 1569 1568
1521 1524 1527 1530 1533 1536 1539 1541 1544 1546 1549 1551 1554 1556 1558 1558 1561 1562 1564 1564 1565 1565 1566 1567 1568 1568 1569 1569 1570 1570 1570 1570 1570 1570 1570 1569 1569 1569 1568 1568 1567 1566 1566
1517 1520 1523 1526 1530 1533 1535 1538 1541 1543 1546 1548 1550 1553 1555 1556 1558 1559 1560 1561 1562 1563 1563 1564 1565 1566 1566 1567 1567 1567 1568 1568 1568 1568 1567 1567 1567 1566 1566 1565 1565 1564 1563
1514 1517 1519 1523 1526 1529 1532 1535 1537 1540 1543 1545 1547 1549 1551 1553 1555 1556 1557 1558 1559 1560 1561 1561 1562 1563 1563 1564 1564 1565 1565 1565 1565 1565 1565 1564 1564 1563 1563 1562 1562 1561 1561
1509 1513 1516 1519 1522 1525 1528 1531 1533 1536 1539 1541 1544 1546 1548 1550 1551 1553 1554 1555 1556 1557 1558 1558 1559 1560 1561 1561 1561 1562 1562 1562 1562 1562 1562 1561 1561 1560 1560 1559 1558 1558 1557
1506 1510 1513 1516 1519 1522 1525 1528 1530 1533 1536 1538 1540 1542 1544 1546 1548 1549 1551 1552 1552 1553 1554 1555 1556 1557 1557 1558 1558 1558 1558 1559 1559 1559 1559 1558 1558 1557 1557 1556 1555 1554 1554
1503 1506 1510 1513 1516 1518 1521 1524 1526 1529 1532 1534 1537 1539 1541 1542 1544 1546 1547 1549 1550 1550 1550 1551 1552 1553 1554 1554 1555 1555 1555 1555 1555 1555 1555 1555 1554 1554 1553 1552 1552 1551 1550
1500 1502 1506 1509 1512 1515 1518 1520 1523 1526 1528 1530 1533 1535 1537 1539 1541 1542 1543 1545 1546 1547 1547 1547 1549 1550 1551 1551 1551 1552 1552 1552 1552 1552 1552 1551 1551 1550 1549 1549 1548 1547 1546
1496 1499 1502 1504 1508 1511 1514 1517 1519 1522 1524 1526 1528 1530 1532 1535 1536 1538 1539 1540 1542 1543 1543 1544 1545 1546 1547 1547 1548 1548 1548 1548 1548 1548 1548 1547 1547 1546 1546 1545 1544 1543 1542
1492 1495 1498 1501 1504 1506 1509 1512 1514 1517 1519 1522 1524 1526 1528 1530 1532 1533 1535 1536 1537 1538 1539 1539 1540 1541 1542 1543 1543 1544 1544 1544 1544 1544 1544 1543 1543 1542 1541 1541 1540 1539 1538
1489 1491 1494 1497 1499 1502 1505 1507 1510 1513 1515 1517 1519 1521 1523 1525 1526 1528 1530 1531 1532 1534 1534 1535 1535 1536 1537 1538 1539 1539 1540 1540 1540 1540 1539 1539 1538 1538 1537 1536 1535 1535 1534
1486 1488 1490 1493 1495 1497 1500 1503 1506 1508 1510 1512 1514 1516 1518 1520 1522 1523 1525 1526 1528 1528 1529 1530 1530 1531 1532 1533 1534 1534 1535 1535 1535 1535 1535 1534 1534 1533 1533 1532 1531 1530 1529
1482 1484 1486 1488 1491 1493 1496 1499 1501 1503 1505 1507 1509 1511 1513 1515 1517 1518 1520 1521 1522 1523 1524 1525 1525 1526 1527 1528 1529 1530 1530 1530 1530 1530 1530 1530 1529 1529 1528 1527 1526 1525 1524
1478 1480 1482 1484 1487 1489 1492 1495 1497 1499 1501 1503 1504 1506 1508 1510 1512 1514 1515 1516 1518 1518 1519 1520 1520 1521 1522 1524 1524 1525 1525 1525 1525 1526 1525 1525 1525 1524 1523 1523 1522 1521 1520
1474 1476 1479 1481 1483 1486 1488 1490 1492 1494 1496 1498 1500 1502 1504 1506 1507 1509 1510 1512 1513 1514 1515 1516 1516 1517 1518 1519 1520 1520 1521 1521 1520 1521 1521 1519 1520 1519 1518 1518 1517 1516 1515
1471 1473 1475 1478 1480 1482 1484 1486 1488 1489 1491 1493 1495 1497 1499 1501 1503 1504 1505 1506 1508 1509 1510 1511 1512 1513 1514 1515 1516 1517 1516 1516 1516 1516 1516 1515 1514 1514 1513 1513 1512 1511 1510
1469 1470 1472 1474 1476 1478 1479 1481 1483 1485 1486 1488 1490 1492 1494 1496 1498 1500 1501 1501 1503 1504 1506 1507 1508 1509 1510 1511 1511 1512 1512 1512 1511 1511 1511 1511 1509 1508 1508 1507 1507 1506 1505
1466 1467 1469 1471 1472 1474 1475 1477 1479 1480 1482 1484 1486 1488 1490 1491 1493 1495 1496 1497 1498 1499 1501 1502 1503 1504 1505 1505 1506 1507 1507 1507 1506 1506 1506 1506 1505 1504 1502 1502 1502 1501 1500